Home > Weather > Gambier Islands > Past weeks

Flag for French Polynesia Weather for the Past 2 Weeks in Gambier Islands, French Polynesia

Now
75 °F

Passing clouds.


Feels Like: 76 °F
Forecast: 71 / 77 °F
Wind: 7 mph from South

Location: Rikitea

Current Time: May 6, 2016 at 10:46:04 AM

Latest Report: May 6, 2016 at 10:00 AM


Visibility: 19 mi

Pressure: 29.99 "Hg

Humidity: 71%

Dew Point: 65 °F

Location of Gambier IslandsLocation

Historic Weather in Gambier Islands — Graph

°F

Gambier Islands Temperature Yesterday

Maximum temperature yesterday: 75 °F (at 2:00 PM)
Minimum temperature yesterday: 70 °F (at 8:00 AM)
Average temperature yesterday: 72 °F

High & Low Weather Summary for the Past Weeks

 TemperatureHumidityPressure
High82 °F (Apr 27, 11:00 AM)95% (Apr 26, 3:00 AM)30.11 "Hg (Apr 26, 3:00 AM)
Low68 °F (May 4, 2:00 AM)55% (May 4, 12:00 PM)29.82 "Hg (Apr 26, 4:00 AM)
Average74 °F76%29.93 "Hg
* Reported Apr 21 9:00 AM — May 6 9:00 AM, Gambier Islands, Weather by CustomWeather, © 2016

Note: Actual official high and low records may vary slightly from our data, if they occured in-between our weather recording intervals... More about our weather records

Advertising

Gambier Islands Weather History for the Previous 24 Hours

Scroll right to see more
 ConditionsComfort  
Time TempWeatherWind HumidityBarometerVisibility
9:00 AM
Fri, May 6
74 °FPassing clouds.7 mph65%29.98 "Hg19 mi
8:00 AM72 °FPassing clouds.5 mph65%29.98 "Hg19 mi
7:00 AM71 °FMild.5 mph69%29.96 "HgN/A
6:00 AM71 °FPassing clouds.6 mph69%29.93 "Hg19 mi
5:00 AM71 °FMild.6 mph69%29.91 "HgN/A
4:00 AM71 °FMild.6 mph73%29.90 "HgN/A
3:00 AM71 °FMild.6 mph71%29.90 "HgN/A
2:00 AM71 °FMild.6 mph72%29.90 "HgN/A
1:00 AM72 °FMild.6 mph74%29.90 "HgN/A
12:00 AM71 °FMild.5 mph71%29.91 "HgN/A
11:00 PM
Thu, May 5
71 °FMild.6 mph69%29.92 "HgN/A
10:00 PM72 °FMild.3 mph65%29.92 "HgN/A
9:00 PM73 °FMild.5 mph66%29.91 "HgN/A
8:00 PM73 °FMild.6 mph66%29.90 "HgN/A
7:00 PM72 °FMild.5 mph71%29.89 "HgN/A
6:00 PM71 °FMild.3 mph78%29.88 "HgN/A
5:00 PM71 °FMild.5 mph77%29.85 "HgN/A
4:00 PM72 °FScattered clouds.6 mph76%29.84 "Hg19 mi
3:00 PM73 °FPartly sunny.3 mph71%29.83 "Hg19 mi
2:00 PM75 °FPassing clouds.6 mph71%29.84 "Hg19 mi
1:00 PM74 °FOvercast.7 mph76%29.86 "Hg12 mi
12:00 PM73 °FOvercast.3 mph78%29.88 "Hg12 mi
11:00 AM72 °FLight rain. Overcast.3 mph78%29.90 "Hg12 mi
10:00 AM73 °FPartly sunny.6 mph80%29.90 "Hg19 mi
Weather by CustomWeather, © 2016

See weather overviewHow to use our weather pages